SCP
0 0 0 0 0 0 0 0 0 0 0 0 0 0 0 0 0 0 0 0 0 0 0 0 0 0 0 0 0 0 1 1 1 1 1 1 1 1
0 0 0 0 0 0 0 0 0 0 0 0 0 0 0 0 0 0 0 0 0 0 0 0 0 0 0 0 0 0 0 0 0 1 1 1 1 1
0 0 0 0 0 0 0 0 0 0 0 0 0 0 0 0 0 0 0 0 0 0 0 0 0 0 0 0 0 0 0 0 0 0 0 1 1 1
0 0 0 0 0 0 0 0 0 0 0 0 0 0 0 0 0 0 0 0 0 0 0 0 0 0 0 0 0 0 0 0 0 0 0 0 1 1
0 0 0 0 0 0 0 0 0 0 0 0 0 0 0 0 0 0 0 0 0 0 0 0 0 0 0 0 0 0 0 0 0 0 0 0 0 0
0 0 0 0 0 0 0 0 0 0 0 0 0 0 0 0 0 0 0 0 0 0 0 0 0 0 0 0 0 0 0 0 0 0 0 0 0 0
0 0 0 0 0 0 0 0 0 0 0 0 0 0 0 0 0 0 0 0 0 0 0 0 0 0 0 0 0 0 0 0 0 0 0 0 0 0
0 0 0 0 0 0 0 0 0 0 0 0 0 0 0 0 0 0 0 0 0 0 0 0 0 0 0 0 0 0 0 0 0 0 0 0 0 0
0 0 0 0 0 0 0 0 0 0 0 0 0 0 0 0 0 0 0 0 0 0 0 0 0 0 0 0 0 0 0 0 0 0 0 0 0 0
0 0 0 0 0 0 0 0 0 0 0 0 0 0 0 0 0 0 0 0 0 0 0 0 0 0 0 0 0 0 0 0 0 0 0 0 0 0
0 0 0 0 0 0 0 0 0 0 0 0 0 0 0 0 0 0 0 0 0 0 0 0 0 0 0 0 0 0 0 0 0 0 0 0 0 0
0 0 0 0 0 0 0 0 0 0 0 0 0 0 0 0 0 0 0 0 0 0 0 0 0 0 0 0 0 0 0 0 0 0 0 0 0 0
0 0 0 0 0 0 0 0 0 0 0 0 0 0 0 0 0 0 0 0 0 0 0 0 0 0 0 0 0 0 0 0 0 0 0 0 0 0
0 0 0 0 0 0 0 0 0 0 0 0 0 0 0 0 0 0 0 0 0 0 0 0 0 0 0 0 0 0 0 0 0 0 0 0 0 0
0 0 0 0 0 0 0 0 0 0 0 0 0 0 0 0 0 0 0 0 0 0 0 0 0 0 0 0 0 0 0 0 0 0 0 0 0 0
0 0 0 0 0 0 0 0 0 0 0 0 0 0 0 0 0 0 0 0 0 0 0 0 0 0 0 0 0 0 0 0 0 0 0 0 0 0
0 0 0 0 0 0 0 0 0 0 0 0 0 0 0 0 0 0 0 0 0 0 0 0 0 0 0 0 0 0 0 0 0 0 0 0 0 0
0 0 0 0 0 0 0 0 0 0 0 0 0 0 0 0 0 0 0 0 0 0 0 0 0 0 0 0 0 0 0 0 0 0 0 0 0 0
0 0 0 0 0 0 0 0 0 0 0 0 0 0 0 0 0 0 0 0 0 0 0 0 0 0 0 0 0 0 0 0 0 0 0 0 0 0
0 0 0 0 0 0 0 0 0 0 0 0 0 0 0 0 0 0 0 0 0 0 0 0 0 0 0 0 0 0 0 0 0 0 0 0 0 0
0 0 0 0 0 0 0 0 0 0 0 0 0 0 0 0 0 0 0 0 0 0 0 0 0 0 0 0 0 0 0 0 0 0 0 0 0 0
0 0 0 0 0 0 0 0 0 0 0 0 0 0 0 0 0 0 0 0 0 0 0 0 0 0 0 0 0 0 0 0 0 0 0 0 0 0
0 0 0 0 0 0 0 0 0 0 0 0 0 0 0 0 0 0 0 0 0 0 0 0 0 0 0 0 0 0 0 0 0 0 0 0 0 0
Wind_Speed
3 2 2 1 1 2 2 3 3 3 2 1 1 1 2 2 2 4 4 2 6 8 9 10 11 11 12 13 14 14 15 16 16 16 17 19 20 20
2 3 3 2 2 1 2 2 3 4 3 1 1 2 3 4 2 5 5 4 8 8 9 10 10 11 12 12 13 14 14 15 16 16 17 18 18 19
2 2 2 3 2 2 2 2 2 3 4 4 3 3 4 4 3 4 5 6 5 7 8 9 10 11 12 13 13 14 14 15 16 17 17 18 18 18
3 3 2 1 2 2 2 2 2 3 4 5 4 3 4 4 4 6 5 5 5 4 7 9 10 11 12 12 13 14 14 15 15 16 17 19 19 19
3 3 3 3 2 1 2 2 2 2 3 4 4 3 4 4 4 5 6 4 6 4 7 10 11 11 12 12 13 13 14 14 15 16 16 17 18 19
3 3 3 4 4 3 2 2 3 3 3 4 4 4 4 4 4 4 4 4 5 6 5 6 7 10 12 13 13 13 14 14 15 15 15 16 17 18
3 3 2 4 6 5 4 4 3 3 3 4 4 4 4 4 4 4 5 5 6 4 4 5 5 6 8 11 14 14 14 14 14 15 16 16 17 17
4 3 2 4 4 5 5 5 6 6 5 4 4 5 6 5 4 5 5 5 5 3 5 6 6 7 6 7 6 9 12 13 14 14 15 16 16 17
5 4 3 3 4 5 5 7 8 8 8 8 8 7 7 6 6 7 6 6 7 6 6 8 7 7 6 6 8 10 12 13 13 13 14 15 16 16
7 6 6 5 4 5 6 6 6 6 5 7 7 7 7 7 7 7 8 8 9 7 6 7 7 7 6 6 7 10 12 13 13 13 14 14 15 16
7 7 6 6 2 3 7 7 7 5 5 8 9 9 10 10 9 7 7 6 7 6 5 6 7 7 7 7 6 8 11 12 13 13 14 14 15 14
6 6 6 6 2 5 7 6 7 6 6 5 8 9 9 9 10 9 7 6 6 5 3 4 6 5 5 4 4 4 6 9 12 14 14 15 14 10
5 5 3 6 6 7 8 7 6 7 8 7 6 6 5 5 5 5 6 6 7 6 5 5 6 6 6 6 6 6 6 6 7 9 12 14 15 12
5 4 1 4 5 6 6 4 5 7 6 6 5 5 5 5 4 5 6 7 8 9 9 8 6 7 7 8 8 6 6 6 7 7 7 8 12 15
3 3 3 1 3 5 3 3 5 5 4 5 5 5 5 5 6 5 7 7 8 8 8 9 8 7 7 7 7 8 8 7 7 7 7 7 7 7
2 3 4 2 2 1 1 2 2 3 4 4 5 5 5 5 5 5 5 5 6 6 6 7 7 8 7 9 8 9 8 7 6 7 7 8 8 8
1 1 1 1 1 0 1 2 2 2 3 4 4 5 5 5 5 4 4 5 5 7 7 6 6 6 8 8 8 9 9 8 8 8 7 8 8 8
1 2 2 2 2 2 2 3 3 3 4 4 4 5 5 5 6 5 5 5 6 6 7 6 6 6 7 7 8 9 8 8 7 7 7 8 9 8
3 3 3 3 3 3 3 3 3 4 4 4 4 5 5 6 6 6 6 6 6 7 7 7 6 6 8 9 7 7 8 8 8 7 7 8 9 9
4 4 3 3 3 3 3 3 4 4 4 4 5 5 5 6 6 6 6 7 8 8 8 7 7 6 7 9 8 9 10 10 9 9 8 8 8 8
3 3 3 3 3 3 3 4 4 4 5 5 5 6 6 6 6 6 7 8 8 8 8 8 8 10 9 8 8 9 9 9 10 9 9 8 8 8
2 2 2 3 3 3 4 4 5 5 5 5 6 6 6 6 7 8 8 8 8 8 10 9 9 9 8 9 11 12 12 11 9 12 14 12 8 7
2 2 3 3 3 4 4 5 6 6 6 6 6 7 7 8 8 8 9 9 9 10 10 10 9 9 9 10 11 11 14 14 10 9 10 12 17 19
Wind_Direction
359 351 335 349 317 322 309 299 294 280 252 185 227 40 332 327 331 281 275 204 238 243 243 242 238 235 234 233 232 232 231 228 226 224 224 226 229 229
349 339 344 328 324 299 283 273 276 287 283 279 289 311 327 297 304 297 286 261 240 237 242 243 242 239 237 236 234 231 230 228 227 225 225 225 227 228
337 344 342 338 309 295 279 265 258 269 276 286 291 300 296 295 302 294 286 273 252 215 233 243 244 242 239 238 236 232 230 229 228 228 228 227 226 226
331 328 333 340 309 302 289 275 274 269 275 290 296 301 299 306 300 293 286 277 276 230 229 243 245 243 241 239 238 235 234 232 230 229 229 230 228 226
318 320 328 318 295 297 284 284 282 276 276 280 289 300 291 298 304 292 284 285 282 260 234 235 238 240 241 239 237 236 236 234 232 231 230 231 229 227
290 294 305 305 302 298 285 283 284 277 273 275 283 288 289 296 290 295 299 297 288 282 265 254 240 236 238 237 236 235 234 234 234 233 231 231 230 229
272 271 291 324 330 313 310 306 295 282 278 279 282 285 287 296 300 309 301 303 290 274 284 272 260 255 243 232 229 230 231 232 233 234 233 230 230 230
277 273 251 237 242 245 272 294 301 294 295 285 282 284 292 295 298 294 298 303 296 303 298 288 279 268 260 256 242 227 231 234 234 234 235 233 231 230
277 274 271 267 259 260 228 231 240 239 257 282 284 286 292 297 295 289 287 289 285 298 301 284 274 268 265 258 234 234 236 237 237 236 236 236 233 231
256 261 261 262 258 283 277 267 270 256 247 256 275 286 293 297 292 287 290 286 282 274 266 275 278 274 273 268 240 231 236 238 239 239 237 237 236 234
248 247 253 257 195 244 268 272 276 271 228 234 266 278 287 280 275 273 267 269 282 286 275 267 282 290 283 272 252 226 233 237 237 237 238 236 235 235
246 240 222 250 242 227 257 268 276 288 294 271 250 245 255 251 234 247 262 269 277 284 273 271 285 298 290 275 275 271 253 242 237 238 237 237 233 236
254 246 220 193 237 242 259 273 296 306 295 289 288 288 281 275 261 251 252 258 267 267 280 287 284 286 279 287 291 285 277 273 263 251 237 233 229 225
266 267 235 162 228 243 253 294 308 287 280 286 288 291 295 295 297 299 287 273 266 272 279 280 276 277 279 280 282 282 281 279 275 269 265 245 229 225
282 28 42 131 234 224 214 279 276 270 286 292 295 301 306 308 305 298 289 281 276 272 268 267 265 267 265 268 276 282 286 282 273 269 267 262 253 237
232 141 152 161 239 331 225 231 273 316 314 303 306 306 307 302 296 298 297 300 293 288 280 278 275 272 271 271 271 274 275 274 275 272 272 269 262 252
359 120 124 134 134 61 357 358 343 333 319 318 312 309 310 308 306 305 299 299 291 298 303 301 294 286 275 273 274 272 275 275 274 275 275 272 267 258
358 82 63 46 34 23 9 358 354 352 342 332 327 323 318 315 312 308 301 296 296 297 299 302 304 299 287 268 245 264 272 277 280 277 274 272 273 269
60 59 50 38 29 21 12 0 355 355 346 338 336 334 330 325 320 318 316 310 305 304 302 301 298 297 296 296 286 248 275 285 285 279 272 269 272 275
54 49 42 32 21 11 3 357 350 346 344 341 339 336 333 328 325 323 321 321 316 310 306 302 302 303 299 296 295 289 265 271 278 280 281 279 276 275
46 38 23 10 5 360 355 345 339 335 333 329 330 328 326 323 322 321 317 317 310 307 309 309 312 307 294 287 281 281 283 260 258 272 283 282 280 275
25 14 1 346 341 336 329 323 320 319 321 320 321 319 318 315 314 313 312 311 309 308 308 306 307 305 300 293 292 294 296 294 270 253 251 250 259 264
343 335 326 322 321 318 315 312 311 312 314 313 313 312 311 309 307 305 305 304 305 306 307 308 309 306 301 295 293 293 295 296 294 286 271 250 243 251